Stations météo

Publicité
Cap Cepet, France (7661): Température de l'air & dewpoint: 12.06.2019 15:00:00 - 18.06.2019 15:00:00 (CEST)Cap Cepet, France (7661): Vitesse du vent & gusts: 12.06.2019 15:00:00 - 18.06.2019 15:00:00 (CEST)Cap Cepet, France (7661): Direction du vent: 12.06.2019 15:00:00 - 18.06.2019 15:00:00 (CEST)Cap Cepet, France (7661): reduced air pressure: 12.06.2019 15:00:00 - 18.06.2019 15:00:00 (CEST)Cap Cepet, France (7661): visibility: 12.06.2019 15:00:00 - 18.06.2019 15:00:00 (CEST)Cap Cepet, France (7661): Quantités de précipitations: 12.06.2019 15:00:00 - 18.06.2019 15:00:00 (CEST)
Date & Time tt [°C] td [°C] ff [km/h] ff [knt] fx [km/h] fx [knt] dd ppp [hPa] vv [km] rr [mm]
18.06.2019 15:00:00 24,7 15,6 16 8 32 17 WSW 1016,1 - 0,0
18.06.2019 14:00:00 24,9 15,0 15 8 23 12 WSW 1016,1 - 0,0
18.06.2019 13:00:00 24,2 15,4 17 9 26 14 SW 1016,2 - 0,0
18.06.2019 12:00:00 23,9 15,7 18 10 26 14 SW 1016,3 - 0,0
18.06.2019 11:00:00 23,3 16,1 10 5 22 12 SW 1016,0 - 0,0
18.06.2019 10:00:00 22,0 16,5 6 3 10 5 WSW 1016,0 - 0,0
18.06.2019 09:00:00 21,5 14,6 4 2 13 7 SW 1016,0 - 0,0
18.06.2019 08:00:00 21,7 12,3 7 4 10 6 E 1015,5 - 0,0
18.06.2019 07:00:00 21,4 12,3 0 0 5 3 N 1015,2 - 0,0
18.06.2019 06:00:00 19,8 11,3 5 3 13 7 NNW 1015,1 - 0,0
18.06.2019 05:00:00 17,6 14,1 9 5 20 11 NNW 1015,2 - 0,0
18.06.2019 04:00:00 17,8 16,0 20 11 25 13 NW 1015,2 - 0,2
18.06.2019 03:00:00 18,3 17,3 18 10 26 14 NW 1015,4 - 0,0
18.06.2019 02:00:00 18,7 16,3 8 4 23 12 NNW 1015,6 - 0,0
18.06.2019 01:00:00 19,5 15,2 21 12 29 15 NW 1015,9 - 0,0
18.06.2019 00:00:00 18,7 18,0 18 10 22 12 NW 1016,0 - 0,0
17.06.2019 23:00:00 18,9 18,1 16 9 22 12 NW 1015,9 - 0,0
17.06.2019 22:00:00 19,4 18,1 19 10 24 13 NW 1015,7 - 0,0
17.06.2019 21:00:00 19,6 18,3 11 6 14 7 WSW 1015,4 - 0,0
17.06.2019 20:00:00 20,8 17,8 9 5 17 9 SW 1015,3 - 0,0
17.06.2019 19:00:00 22,3 17,2 10 5 14 8 SW 1015,0 - 0,0
17.06.2019 18:00:00 23,1 16,6 11 6 22 12 SW 1015,1 - 0,0
17.06.2019 17:00:00 22,4 17,7 16 8 25 13 WSW 1015,6 - 0,0
17.06.2019 16:00:00 22,4 18,0 15 8 24 13 WSW 1016,1 - 0,0
17.06.2019 15:00:00 23,1 17,8 13 7 26 14 WSW 1016,5 - 0,0
17.06.2019 14:00:00 23,5 17,9 19 10 30 16 SW 1016,4 - 0,0
17.06.2019 13:00:00 25,4 17,3 14 7 21 12 WSW 1016,0 - 0,0
17.06.2019 12:00:00 23,5 16,5 13 7 24 13 E 1016,1 - 0,0
17.06.2019 11:00:00 22,6 17,1 14 8 23 12 SE 1016,4 - 0,0
17.06.2019 10:00:00 22,3 16,8 8 5 16 8 E 1016,2 - 0,0
17.06.2019 09:00:00 21,6 16,5 10 6 21 11 E 1016,0 - 0,0
17.06.2019 08:00:00 19,1 15,4 16 9 25 13 E 1015,7 20 0,0
17.06.2019 07:00:00 17,4 15,0 20 11 31 17 E 1015,4 - 0,0
17.06.2019 06:00:00 16,7 14,9 22 12 30 16 E 1015,1 - 0,0
17.06.2019 05:00:00 17,1 15,3 21 11 26 14 E 1014,9 - 0,0
17.06.2019 04:00:00 17,5 14,9 14 8 23 13 E 1015,0 - 0,0
17.06.2019 03:00:00 17,7 14,4 16 9 22 12 E 1014,7 - 0,0
17.06.2019 02:00:00 18,4 15,3 14 8 18 10 E 1014,6 - 0,0
17.06.2019 01:00:00 18,8 15,8 13 7 16 9 E 1015,0 - 0,0
17.06.2019 00:00:00 19,2 15,7 14 8 16 9 E 1015,3 - 0,0
16.06.2019 23:00:00 19,8 15,6 9 5 18 10 E 1015,5 - 0,0
16.06.2019 22:00:00 20,1 14,5 16 9 22 12 E 1015,2 - 0,0
16.06.2019 21:00:00 20,4 15,6 17 9 21 11 E 1015,1 - 0,0
16.06.2019 20:00:00 21,9 16,2 6 4 16 9 E 1014,9 - 0,0
16.06.2019 19:00:00 24,5 15,4 5 3 18 10 W 1014,9 - 0,0
16.06.2019 18:00:00 26,3 15,4 8 4 21 11 NNW 1015,0 - 0,0
16.06.2019 17:00:00 24,0 16,3 14 7 26 14 WSW 1015,5 - 0,0
16.06.2019 16:00:00 24,6 14,1 11 6 23 13 SW 1015,8 - 0,0
16.06.2019 15:00:00 24,8 13,0 13 7 21 11 S 1016,0 - 0,0
16.06.2019 14:00:00 25,0 11,5 11 6 23 12 SW 1016,0 35 0,0
16.06.2019 13:00:00 24,1 11,4 11 6 23 13 WSW 1016,4 - 0,0
16.06.2019 12:00:00 24,2 12,8 11 6 20 11 SW 1016,5 - 0,0
16.06.2019 11:00:00 23,2 11,6 12 6 17 9 WSW 1016,4 35 0,0
16.06.2019 10:00:00 21,3 11,9 9 5 13 7 SW 1016,2 - 0,0
16.06.2019 09:00:00 20,7 11,1 6 3 10 5 S 1016,2 - 0,0
16.06.2019 08:00:00 18,8 12,5 4 2 26 14 NNW 1016,0 35 0,0
16.06.2019 07:00:00 17,4 11,2 22 12 32 17 NW 1015,4 - 0,0
16.06.2019 06:00:00 17,0 12,1 17 9 24 13 NW 1015,4 - 0,0
16.06.2019 05:00:00 17,9 12,3 20 11 29 16 NW 1015,4 18 0,0
16.06.2019 04:00:00 18,9 12,6 20 11 28 15 NW 1015,5 - 0,0
16.06.2019 03:00:00 19,0 13,4 21 11 32 18 NW 1015,8 - 0,0
16.06.2019 02:00:00 19,1 15,0 24 13 31 17 NW 1016,0 - 0,0
16.06.2019 01:00:00 19,5 16,2 22 12 29 15 NW 1016,3 - 0,0
16.06.2019 00:00:00 19,8 16,4 22 12 31 17 NW 1016,4 - 0,0
15.06.2019 23:00:00 19,0 17,0 27 14 45 24 NW 1016,0 - 0,0
15.06.2019 22:00:00 19,1 16,5 33 18 45 24 NW 1015,6 - 0,0
15.06.2019 21:00:00 19,9 16,1 26 14 45 24 NW 1015,6 - 0,0
15.06.2019 20:00:00 21,7 16,9 26 14 42 23 WNW 1015,6 - 0,0
15.06.2019 19:00:00 23,2 15,3 27 15 39 21 NW 1015,3 - 0,0
15.06.2019 18:00:00 24,7 15,9 20 11 33 18 NW 1015,4 - 0,0
15.06.2019 17:00:00 23,3 16,8 14 8 29 16 WSW 1016,1 18 0,0
15.06.2019 16:00:00 21,7 17,3 20 11 28 15 WSW 1016,5 - 0,0
15.06.2019 15:00:00 22,7 16,9 13 7 24 13 WSW 1016,6 - 0,0
15.06.2019 14:00:00 21,9 17,1 16 9 25 13 WSW 1017,2 10 0,0
15.06.2019 13:00:00 22,2 16,9 11 6 21 11 WSW 1017,3 - 0,0
15.06.2019 12:00:00 21,3 16,5 10 5 23 13 WSW 1017,4 - 0,0
15.06.2019 11:00:00 21,2 17,0 8 5 15 8 WSW 1017,2 10 0,0
15.06.2019 10:00:00 18,5 16,8 3 2 12 6 SW 1017,0 - 0,0
15.06.2019 09:00:00 17,9 17,4 9 5 14 8 SW 1016,8 - 0,0
15.06.2019 08:00:00 17,6 17,4 8 4 11 6 WSW 1016,3 - 0,0
15.06.2019 07:00:00 17,4 17,2 8 4 11 6 WSW 1015,8 - 0,0
15.06.2019 06:00:00 17,0 16,5 10 6 17 9 E 1015,4 - 0,0
15.06.2019 05:00:00 17,1 16,5 3 2 13 7 ENE 1015,3 - 0,0
15.06.2019 04:00:00 17,0 16,8 12 6 16 9 NW 1015,1 - 0,0
15.06.2019 03:00:00 17,3 17,1 11 6 16 8 NW 1015,2 - 0,0
15.06.2019 02:00:00 17,8 17,8 13 7 18 10 WSW 1015,0 - 0,2
15.06.2019 01:00:00 18,1 18,1 4 2 22 12 SSW 1014,8 - 0,0
15.06.2019 00:00:00 18,2 18,0 14 8 32 17 SSW 1014,5 - 0,0
14.06.2019 23:00:00 18,6 18,4 22 12 37 20 E 1013,6 - 0,0
14.06.2019 22:00:00 19,1 18,8 19 11 41 22 E 1012,7 - 0,2
14.06.2019 21:00:00 19,2 18,7 24 13 56 30 ESE 1011,9 - 0,0
14.06.2019 20:00:00 19,9 18,9 24 13 50 27 ESE 1011,0 - 0,0
14.06.2019 19:00:00 21,0 17,6 35 19 61 33 E 1010,5 - 0,0
14.06.2019 18:00:00 23,0 15,8 42 23 69 37 E 1009,3 - 0,0
14.06.2019 17:00:00 22,9 14,7 51 27 82 44 E 1009,2 20 0,0
14.06.2019 16:00:00 25,3 12,5 49 26 86 47 E 1008,3 - 0,0
14.06.2019 15:00:00 26,3 10,4 50 27 90 48 E 1009,0 - 0,0
14.06.2019 14:00:00 27,5 9,3 57 31 97 53 E 1009,1 - 0,0
14.06.2019 13:00:00 27,8 9,1 58 32 100 54 E 1009,0 - 0,0
14.06.2019 12:00:00 28,3 9,6 61 33 89 48 E 1009,2 - 0,0
14.06.2019 11:00:00 27,7 10,8 56 30 91 49 E 1009,4 20 0,0
14.06.2019 10:00:00 27,0 11,5 61 33 89 48 E 1009,7 - 0,0
14.06.2019 09:00:00 24,4 10,7 41 22 79 42 E 1011,6 - 0,0
14.06.2019 08:00:00 24,8 10,3 55 30 78 42 E 1010,0 20 0,0
14.06.2019 07:00:00 22,9 10,7 51 28 72 39 E 1010,4 - 0,0
14.06.2019 06:00:00 21,2 8,8 48 26 62 34 E 1010,7 - 0,0
14.06.2019 05:00:00 20,7 6,2 44 24 56 30 E 1011,5 - 0,0
14.06.2019 04:00:00 20,1 5,3 39 21 49 27 E 1013,0 - 0,0
14.06.2019 03:00:00 19,3 5,4 30 16 46 25 E 1014,2 - 0,0
14.06.2019 02:00:00 20,0 2,8 34 18 50 27 E 1014,1 - 0,0
14.06.2019 01:00:00 19,9 3,1 36 19 63 34 E 1014,2 - 0,0
14.06.2019 00:00:00 19,0 3,6 36 19 47 26 E 1014,6 - 0,0
13.06.2019 23:00:00 19,2 5,3 34 18 48 26 E 1014,9 - 0,0
13.06.2019 22:00:00 19,4 5,4 29 16 39 21 E 1015,0 - 0,0
13.06.2019 21:00:00 18,8 12,5 22 12 34 19 E 1014,7 - 0,0
13.06.2019 20:00:00 18,9 13,3 17 9 32 18 E 1015,1 - 0,0
13.06.2019 19:00:00 19,9 13,1 16 9 25 13 E 1015,5 - 0,0
13.06.2019 18:00:00 20,4 13,1 11 6 23 12 E 1015,8 - 0,0
13.06.2019 17:00:00 21,4 13,3 16 9 27 15 SW 1016,2 - 0,0
13.06.2019 16:00:00 21,9 11,3 14 8 21 11 SW 1016,0 - 0,0
13.06.2019 15:00:00 21,5 12,6 6 3 25 13 SW 1016,5 - 0,0
13.06.2019 14:00:00 21,6 13,0 16 9 25 13 SW 1016,4 - 0,0
13.06.2019 13:00:00 22,3 12,5 12 7 21 11 WSW 1016,2 - 0,0
13.06.2019 12:00:00 20,7 11,9 8 5 20 11 WSW 1016,4 - 0,0
13.06.2019 11:00:00 19,2 12,5 14 8 19 10 SW 1016,8 25 0,0
13.06.2019 10:00:00 19,7 9,8 3 2 9 5 SW 1016,3 - 0,0
13.06.2019 09:00:00 17,9 8,5 6 3 12 7 NNW 1016,0 - 0,0
13.06.2019 08:00:00 16,4 8,9 5 3 11 6 NW 1015,8 - 0,0
13.06.2019 07:00:00 13,9 9,3 7 4 16 8 N 1015,7 - 0,0
13.06.2019 06:00:00 12,9 9,0 11 6 16 9 NNW 1015,1 - 0,0
13.06.2019 05:00:00 13,5 9,5 15 8 27 14 NNW 1014,5 - 0,0
13.06.2019 04:00:00 13,8 9,6 21 12 30 16 NW 1014,6 - 0,0
13.06.2019 03:00:00 14,1 10,1 24 13 38 20 NW 1015,3 - 0,0
13.06.2019 02:00:00 14,2 10,0 26 14 39 21 NW 1015,6 - 0,0
13.06.2019 01:00:00 14,7 9,7 31 17 40 22 NW 1015,7 - 0,0
13.06.2019 00:00:00 15,1 9,7 32 17 48 26 NW 1015,7 - 0,0
12.06.2019 23:00:00 15,7 10,5 37 20 54 29 NW 1015,2 - 0,0
12.06.2019 22:00:00 15,9 9,3 34 19 50 27 NW 1015,0 - 0,0
12.06.2019 21:00:00 16,6 9,0 29 16 46 25 NW 1014,6 - 0,0
12.06.2019 20:00:00 18,4 9,5 32 17 48 26 NW 1013,9 25 0,0
12.06.2019 19:00:00 19,6 8,9 27 15 54 29 NW 1013,8 - 0,0
12.06.2019 18:00:00 20,2 8,2 38 21 56 30 NW 1013,6 - 0,0
12.06.2019 17:00:00 21,7 7,9 32 17 53 29 WNW 1014,1 - 0,0
12.06.2019 16:00:00 21,4 8,3 33 18 62 33 W 1013,9 - 0,0
12.06.2019 15:00:00 21,4 9,6 41 22 59 32 NW 1013,4 - 0,0

tt = Température de l'air
td = dewpoint
ff = Vitesse du vent
fx = gusts
dd = Direction du vent
ppp = reduced air pressure
vv = visibility
rr = Quantités de précipitations

stations d'obs. à proximité